Location: Acequia del Cap
(41.7000°N, 0.6167°E)
Time: 23:53:44
(UTC+00:00)

Lacrosse 4 Rocket - Pass Details

Date: 07 August 2020
Orbit: 544 x 615 km, 68.0° (Epoch: 22 September)

Event Time Altitude Azimuth Distance (km) Brightness Sun altitude
Exits shadow 01:49:16 10° 309° (NW) 1,899 4.1 -27.0°
Reaches altitude 10° 01:49:24 10° 311° (NW) 1,892 4.2 -27.0°
Maximum altitude 01:49:52 10° 317° (NW) 1,880 4.2 -27.0°
Drops below altitude 10° 01:50:20 10° 324° (NW) 1,888 4.3 -26.9°
Sets 01:54:53 0° 9° (N) 2,767 6.0 -26.5°
